User: anonymous   Login
Location: Hamburg
(53.5500°N, 10.0000°E)
Time: 11:03:50
(UTC+02:00)
Language:

Courier 1B - Orbit

View from above orbital plane
View from above orbital plane
View from above satellite
View from above satellite

Ground track
Ground track

The orbit data is extracted from the following two-line orbital elements,

1 00058U 60013A   16180.19479511  .00000109  00000-0  34708-4 0  9992
2 00058  28.3278 252.0777 0165053 302.6035  55.8674 13.46303440743562
Epoch (UTC): 28 June 2016 04:40:30
Eccentricity: 0.0165053
inclination: 28.3278°
perigee height: 962 km
apogee height: 1209 km
right ascension of ascending node: 252.0777°
argument of perigee: 302.6035°
revolutions per day: 13.46303440
mean anomaly at epoch: 55.8674°
orbit number at epoch: 74356

The dashed part of the orbit path shows where the satellite is in the earth's shadow,  

DLR